Погода в Сен-Пьере

Реюньон     21°20′34″S   55°28′05″E
темп.,
°C
ветер,
м/с
пор.,
м/с
влажн.,
%
обл.,
%
осадки,
мм/ч
давл.,
гПа
погр.,
м
18 мая, вт
вт1801:00+17св21792 0.0 102083
04:00+17ссв21710 0.0 1019125
07:00+17ссв22660 0.0 1020111
10:00+21юз21610 0.0 1020642
13:00+21ююз326523 0.0 1018959
16:00+20ю218063 0.4 1018512
19:00+18вюв23887 0.2 1019187
22:00+17вюв238810 0.3 1020151
19 мая, ср
ср1901:00+16в22830 0.0 1019115
04:00+15всв23690 0.0 1018107
07:00+15в23844 0.0 1019114
10:00+20ююв44670 0.0 1019569
13:00+21ююв546713 0.0 1017749
16:00+19ююв457722 0.1 1017663
19:00+17ююв469184 0.8 1019483
22:00+16юв469143 1.3 1020348
20 мая, чт
чт2001:00+16юв469125 0.5 1019387
04:00+15юв578955 0.8 1019439
07:00+16вюв578764 0.3 1020539
10:00+17юв688549 0.9 1021672
13:00+16юв788997 0.8 1020603
16:00+16юв788642 1.4 1020619
19:00+15вюв578624 0.1 1021381
22:00+15вюв578826 0.3 1021339
21 мая, пт
пт2101:00+15вюв458680 0.3 1021338
04:00+15вюв568969 0.7 1020315
07:00+16вюв568240 0.3 1021411
10:00+18вюв566718 0.3 1022879
13:00+20вюв556330 0.1 10201008
16:00+18вюв566621 0.2 1020766
19:00+16в458061 0.1 1021282
22:00+15вюв467812 0.3 1022321
22 мая, сб
сб2201:00+15в458116 0.1 1022228
04:00+15в458123 0.2 1020288
07:00+14всв44816 0.0 1021170
10:00+17вюв557236 0.1 1022744
13:00+20юв665817 0.0 10201099
16:00+18юв667159 0.1 1019821
19:00+16вюв568464 0.1 1021451
22:00+15вюв468328 0.2 1022428